Boone, NC

3:54 PM EST on December 11, 2019 (GMT -0500)
Boone

Weather History for KTNB - September, 2019

Change the Weather History Date:

Saturday, September 28, 2019

  Actual Average (KGEV) Record (KGEV)
Temperature  
Mean Temperature 71 °F -  
Max Temperature 81 °F 69 °F 83 °F (1986)
Min Temperature 61 °F 46 °F 29 °F (1991)
Cooling Degree Days 6    
Growing Degree Days 21 (Base 50)    
Moisture  
Dew Point 64 °F    
Average Humidity 88    
Maximum Humidity 100    
Minimum Humidity 54    
Precipitation  
Precipitation 0.45 in - - ()
Sea Level Pressure  
Sea Level Pressure 30.26 in    
Wind  
Wind Speed 0 mph (South)    
Max Wind Speed 22 mph    
Max Gust Speed 38 mph    
Visibility 8 miles    
Events Rain , Thunderstorm    
Averages and records for this station are not official NWS values.
T = Trace of Precipitation, MM = Missing Value Source: NWS Daily Summary

Daily Weather History Graph

Daily Weather History Graph

Search for Another Location

Airport or City:

Astronomy

Sep. 28, 2019 Rise Set
Actual Time 7:19 AM EDT 7:14 PM EDT
Civil Twilight 6:53 AM EDT 7:40 PM EDT
Nautical Twilight 6:23 AM EDT 8:10 PM EDT
Astronomical Twilight 5:53 AM EDT 8:40 PM EDT
Moon 6:56 AM EDT (9/28) 7:38 PM EDT (9/28)
Length of Visible Light 12h 47m
Length of Day
11h 55m
Waning Crescent, 0% of the Moon is Illuminated
Sep 28
Waning Crescent
Sep 28
New
Oct 5
First Quarter
Oct 13
Full
Oct 21
Last Quarter

Hourly Weather History & Observations

Time (EDT) Temp. Heat Index Dew Point Humidity Pressure Visibility Wind Dir Wind Speed Gust Speed Precip Events Conditions
12:15 AM 63.0 °F - 63.0 °F 100% 30.20 in 5.0 mi Calm Calm - N/A   Mostly Cloudy
12:35 AM 63.1 °F - 63.1 °F 100% 30.20 in 7.0 mi Calm Calm - N/A   Mostly Cloudy
12:55 AM 62.8 °F - 62.8 °F 100% 30.19 in 7.0 mi Calm Calm - N/A   Mostly Cloudy
1:15 AM 62.6 °F - 62.6 °F 100% 30.20 in 7.0 mi Calm Calm - N/A   Scattered Clouds
1:35 AM 62.2 °F - 62.2 °F 100% 30.20 in 5.0 mi Calm Calm - N/A   Clear
1:55 AM 61.9 °F - 61.9 °F 100% 30.20 in 5.0 mi Calm Calm - N/A   Clear
2:15 AM 62.6 °F - 62.6 °F 100% 30.20 in 10.0 mi Calm Calm - N/A   Scattered Clouds
2:35 AM 62.1 °F - 62.1 °F 100% 30.20 in 7.0 mi Calm Calm - N/A   Scattered Clouds
2:55 AM 63.5 °F - 63.0 °F 98% 30.20 in 10.0 mi Calm Calm - N/A   Mostly Cloudy
3:15 AM 64.4 °F - 62.8 °F 94% 30.21 in 10.0 mi Calm Calm - N/A   Overcast
3:35 AM 64.4 °F - 63.0 °F 95% 30.21 in 10.0 mi Calm Calm - N/A   Overcast
3:55 AM 63.7 °F - 62.8 °F 97% 30.21 in 10.0 mi Calm Calm - N/A   Mostly Cloudy
4:15 AM 63.0 °F - 62.8 °F 99% 30.21 in 7.0 mi Calm Calm - N/A   Mostly Cloudy
4:35 AM 63.3 °F - 63.1 °F 99% 30.22 in 10.0 mi Calm Calm - N/A   Scattered Clouds
4:55 AM 63.1 °F - 63.0 °F 99% 30.22 in 10.0 mi Calm Calm - N/A   Scattered Clouds
5:15 AM 63.9 °F - 63.0 °F 97% 30.22 in 10.0 mi Calm Calm - N/A   Scattered Clouds
5:35 AM 62.8 °F - 62.8 °F 100% 30.23 in 7.0 mi Calm Calm - N/A   Scattered Clouds
5:55 AM 63.9 °F - 63.3 °F 98% 30.23 in 10.0 mi Calm Calm - N/A   Mostly Cloudy
6:15 AM 63.9 °F - 63.0 °F 97% 30.23 in 10.0 mi Calm Calm - N/A   Scattered Clouds
6:35 AM 62.6 °F - 62.6 °F 100% 30.23 in 7.0 mi Calm Calm - N/A   Scattered Clouds
6:55 AM 62.6 °F - 62.6 °F 100% 30.23 in 7.0 mi Calm Calm - N/A   Scattered Clouds
7:15 AM 62.4 °F - 62.4 °F 100% 30.23 in 7.0 mi Calm Calm - N/A   Scattered Clouds
7:35 AM 61.7 °F - 61.7 °F 100% 30.23 in 4.0 mi Calm Calm - N/A   Scattered Clouds
7:55 AM 62.2 °F - 62.2 °F 100% 30.24 in 7.0 mi Calm Calm - N/A   Scattered Clouds
8:15 AM 62.1 °F - 62.1 °F 100% 30.25 in 5.0 mi Calm Calm - N/A   Clear
8:35 AM 64.2 °F - 64.2 °F 100% 30.25 in 10.0 mi Calm Calm - N/A   Scattered Clouds
8:55 AM 66.0 °F - 64.8 °F 96% 30.26 in 10.0 mi Calm Calm - N/A   Scattered Clouds
9:15 AM 67.8 °F - 64.4 °F 89% 30.26 in 10.0 mi Calm Calm - N/A   Mostly Cloudy
9:35 AM 69.6 °F - 63.3 °F 80% 30.27 in 10.0 mi Calm Calm - N/A   Scattered Clouds
9:55 AM 71.4 °F - 63.0 °F 75% 30.27 in 10.0 mi Calm Calm - N/A   Scattered Clouds
10:15 AM 71.4 °F - 64.2 °F 78% 30.27 in 10.0 mi Calm Calm - N/A   Scattered Clouds
10:35 AM 76.1 °F - 63.1 °F 64% 30.27 in 10.0 mi Calm Calm - N/A   Scattered Clouds
10:55 AM 79.0 °F - 63.5 °F 59% 30.28 in 10.0 mi Calm Calm - N/A   Clear
11:15 AM 81.0 °F 82.2 °F 63.1 °F 54% 30.28 in 10.0 mi Calm Calm - N/A Thunderstorm Scattered Clouds
11:35 AM 80.1 °F 82.1 °F 66.2 °F 62% 30.28 in 10.0 mi Calm Calm - N/A   Scattered Clouds
11:55 AM 81.9 °F 83.2 °F 63.9 °F 54% 30.28 in 10.0 mi Calm Calm - N/A Thunderstorm Scattered Clouds
12:15 PM 79.2 °F - 66.0 °F 64% 30.28 in 10.0 mi Calm Calm - N/A Thunderstorm Thunderstorm
12:35 PM 68.2 °F - 60.1 °F 75% 30.31 in 1.5 mi SW 21.9 mph 38.0 mph 0.14 in Rain , Thunderstorm Heavy Thunderstorms and Rain
12:55 PM 64.6 °F - 63.7 °F 97% 30.31 in 4.0 mi Calm Calm - 0.23 in Rain , Thunderstorm Light Thunderstorms and Rain
1:15 PM 68.0 °F - 61.2 °F 79% 30.29 in 10.0 mi Calm Calm - N/A   Scattered Clouds
1:35 PM 71.6 °F - 61.5 °F 70% 30.29 in 10.0 mi Calm Calm - N/A   Scattered Clouds
1:55 PM 70.9 °F - 69.4 °F 95% 30.28 in 10.0 mi Calm Calm - 0.01 in Rain Light Rain
2:15 PM 75.9 °F - 64.4 °F 67% 30.27 in 10.0 mi Calm Calm - N/A   Clear
2:35 PM 77.0 °F - 61.5 °F 59% 30.26 in 10.0 mi Calm Calm - N/A   Scattered Clouds
2:55 PM 77.0 °F - 62.8 °F 61% 30.26 in 10.0 mi Calm Calm - N/A   Scattered Clouds
3:15 PM 79.0 °F - 63.9 °F 60% 30.26 in 10.0 mi Calm Calm - N/A   Clear
3:35 PM 78.1 °F - 67.6 °F 70% 30.26 in 10.0 mi Calm Calm - N/A Thunderstorm Clear
3:55 PM 78.6 °F - 66.7 °F 67% 30.26 in 10.0 mi South 6.9 mph - N/A Thunderstorm Clear
4:15 PM 77.0 °F - 66.6 °F 70% 30.26 in 10.0 mi South 10.4 mph 16.1 mph N/A Thunderstorm Clear
4:35 PM 73.8 °F - 65.5 °F 75% 30.27 in 10.0 mi SSE 6.9 mph - N/A Thunderstorm Thunderstorm
4:55 PM 71.2 °F - 61.5 °F 71% 30.30 in 7.0 mi NNE 3.5 mph 19.6 mph N/A Thunderstorm Thunderstorm
5:15 PM 66.7 °F - 65.3 °F 95% 30.29 in 1.8 mi Calm Calm - 0.21 in Rain , Thunderstorm Thunderstorms and Rain
5:35 PM 71.4 °F - 65.3 °F 81% 30.28 in 10.0 mi Calm Calm - 0.21 in   Scattered Clouds
5:55 PM 71.1 °F - 65.3 °F 82% 30.28 in 10.0 mi Calm Calm - 0.21 in Thunderstorm Thunderstorm
6:15 PM 70.9 °F - 64.6 °F 80% 30.27 in 10.0 mi Calm Calm - N/A   Clear
6:35 PM 69.6 °F - 65.3 °F 86% 30.27 in 10.0 mi Calm Calm - N/A   Clear
6:55 PM 69.8 °F - 64.6 °F 83% 30.27 in 10.0 mi Calm Calm - N/A   Clear
7:15 PM 67.3 °F - 66.7 °F 98% 30.28 in 5.0 mi Calm Calm - N/A   Clear
7:35 PM 66.4 °F - 66.4 °F 100% 30.28 in 5.0 mi Calm Calm - N/A   Clear
7:55 PM 65.3 °F - 65.3 °F 100% 30.28 in 3.0 mi Calm Calm - N/A   Clear
8:15 PM 65.5 °F - 65.5 °F 100% 30.28 in 7.0 mi Calm Calm - N/A   Clear
8:55 PM 63.7 °F - 63.7 °F 100% 30.28 in 1.5 mi Calm Calm - N/A   Mist
9:15 PM 64.6 °F - 64.6 °F 100% 30.29 in 10.0 mi Calm Calm - N/A   Clear
9:35 PM 63.9 °F - 63.9 °F 100% 30.29 in 7.0 mi Calm Calm - N/A   Clear
9:55 PM 62.6 °F - 62.6 °F 100% 30.30 in 2.5 mi Calm Calm - N/A   Clear
10:15 PM 62.4 °F - 62.4 °F 100% 30.30 in 4.0 mi Calm Calm - N/A   Clear
10:35 PM 62.8 °F - 62.8 °F 100% 30.31 in 3.0 mi Calm Calm - N/A   Clear
10:55 PM 63.1 °F - 63.1 °F 100% 30.31 in 10.0 mi Calm Calm - N/A   Clear
11:15 PM 61.9 °F - 61.9 °F 100% 30.31 in 1.8 mi Calm Calm - N/A   Mist
11:35 PM 61.7 °F - 61.7 °F 100% 30.31 in 2.5 mi Calm Calm - N/A   Clear
11:55 PM 61.2 °F - 61.2 °F 100% 30.32 in 2.5 mi Calm Calm - N/A   Clear